User: anonymous   Login
Location: Camp Roosevelt
(41.7914°N, 81.1673°W)
Time: 03:00:56
(UTC+00:00)
Language:

NOSS 3-3 (A) - Orbit

View from above orbital plane
View from above orbital plane
View from above satellite
View from above satellite

Ground track
Ground track

The orbit data is extracted from the following two-line orbital elements,

1 28537U 05004A   21014.11927313 0.00000000  00000-0  00000-0 0    02
2 28537  63.4252  94.1560 0383434 358.6336   1.3664 13.40815014    00
Epoch (UTC): 14 January 2021 02:51:45
Eccentricity: 0.0383434
inclination: 63.4252°
perigee height: 819 km
apogee height: 1393 km
right ascension of ascending node: 94.1560°
argument of perigee: 358.6336°
revolutions per day: 13.40815014
mean anomaly at epoch: 1.3664°
orbit number at epoch: 0

The dashed part of the orbit path shows where the satellite is in the earth's shadow,  

DLR